User: anonymous   Login
Location: Albany
(35.0000°S, 118.0000°E)
Time: 21:46:13
(UTC-04:00)
Language:

Atlas Centaur 2 - Orbit

View from above orbital plane
View from above orbital plane
View from above satellite
View from above satellite

Ground track
Ground track

The orbit data is extracted from the following two-line orbital elements,

1   694U 63047A   17172.93595332 +.00000405 +00000-0 +42557-4 0  9992
2   694 030.3545 138.7297 0587859 072.7147 293.6887 14.02100123683765
Epoch (UTC): 21 June 2017 22:27:46
Eccentricity: 0.0587859
inclination: 30.3545°
perigee height: 459 km
apogee height: 1313 km
right ascension of ascending node: 138.7297°
argument of perigee: 72.7147°
revolutions per day: 14.02100123
mean anomaly at epoch: 293.6887°
orbit number at epoch: 68376

The dashed part of the orbit path shows where the satellite is in the earth's shadow,  

DLR